Wind_Speed
9 10 11 12 12 14 15 16 16 16 16 16 17 17 17 17 17 17 17 17 18 18 19 21 22 23 24 24 25 27 29 30 30 31 31 31 32 32 33 33 34 34 34 35
7 8 9 10 11 12 14 15 15 14 15 16 17 18 18 18 18 17 18 17 18 19 19 20 20 22 23 24 26 27 28 29 30 30 29 30 31 31 32 33 33 34 35 35
7 7 8 9 11 12 12 14 14 14 15 17 17 18 18 17 17 17 18 18 18 19 19 19 19 21 23 25 26 28 28 29 30 30 29 29 29 31 32 33 33 34 34 35
7 7 7 8 9 10 11 13 13 14 15 16 17 18 17 17 17 18 18 18 19 19 19 19 20 21 22 24 26 27 29 30 30 30 29 29 30 31 31 32 32 33 33 35
6 7 7 7 7 9 11 12 13 13 14 16 17 18 18 18 18 18 18 18 19 20 20 21 21 21 23 24 25 26 27 28 29 30 30 30 30 30 30 31 31 32 33 34
7 7 8 8 8 9 11 12 13 13 14 15 15 17 18 18 18 18 19 19 20 20 21 21 21 22 23 24 24 25 26 27 29 30 31 31 30 30 31 31 31 32 33 35
8 8 8 8 8 9 10 11 12 12 13 14 14 16 17 17 18 19 20 20 21 21 21 21 22 23 24 24 24 25 26 27 28 29 30 30 30 30 30 31 32 33 34 35
8 8 9 9 9 9 9 11 12 13 13 14 14 15 16 17 18 19 20 21 22 22 22 22 23 23 24 25 25 26 26 27 28 28 29 29 29 29 29 30 32 33 34 35
9 9 9 10 10 11 11 11 12 14 14 15 14 15 15 16 17 18 19 20 21 22 23 23 24 24 25 25 26 26 26 27 27 27 27 28 29 29 30 31 32 32 33 34
11 11 11 11 12 12 12 12 13 14 16 17 17 16 17 17 17 18 18 19 20 21 22 23 24 25 26 26 26 26 27 27 27 28 28 29 29 30 30 31 31 32 33 34
12 12 12 12 13 13 14 14 15 17 17 18 18 17 18 18 18 18 19 19 20 21 21 22 24 25 25 26 26 27 27 28 28 28 28 29 30 30 30 30 31 32 33 34
14 14 13 13 14 14 15 15 16 17 18 18 19 17 17 18 19 19 20 20 21 21 21 22 23 24 25 25 26 27 27 27 27 27 28 28 29 29 29 30 30 31 33 34
15 15 16 15 15 15 15 16 17 18 19 19 20 18 18 19 19 20 20 21 22 22 22 23 24 24 25 26 26 27 28 28 28 28 29 29 29 29 30 31 32 32 34 34
16 17 17 17 18 17 17 17 18 19 20 20 19 19 19 20 21 21 21 22 22 22 22 23 24 25 26 27 27 28 29 29 29 29 29 30 30 30 31 32 34 35 35 35
19 19 19 19 19 19 19 18 19 20 21 21 20 21 21 22 23 22 22 23 23 23 24 24 25 26 27 27 28 28 29 29 29 29 29 30 31 32 33 34 35 36 36 36
22 22 22 21 21 21 20 19 20 21 21 22 22 22 22 24 24 24 24 24 24 25 26 26 27 27 28 28 28 29 29 29 29 29 30 31 32 32 33 34 35 35 36 37
24 24 24 23 23 23 22 21 21 22 22 23 24 23 24 25 25 25 25 25 26 27 27 27 27 27 28 28 29 30 30 29 29 30 30 31 31 32 33 34 34 35 36 36
26 26 26 24 24 25 23 23 23 24 24 25 25 25 26 26 26 26 26 26 27 27 28 28 28 28 29 29 30 30 30 30 30 31 31 31 32 33 33 34 35 36 37 37
27 27 28 28 28 27 25 25 25 26 25 26 27 27 27 27 27 27 27 28 28 28 29 29 30 30 30 30 30 31 31 31 31 32 32 33 33 34 34 35 36 37 37 37
29 30 30 31 31 30 27 27 27 28 28 27 28 28 28 29 29 28 28 29 30 30 31 31 31 31 31 31 32 32 32 32 33 33 33 34 35 35 36 37 37 38 38 38
31 32 32 33 33 32 30 30 30 30 29 29 29 30 30 30 30 30 30 30 31 31 32 32 32 32 32 32 33 33 33 33 34 35 35 36 36 36 37 38 39 39 40 40
33 34 33 34 35 33 32 32 32 32 32 32 32 32 32 31 31 31 31 31 31 32 32 32 32 33 33 34 34 35 35 35 36 36 37 37 38 38 38 39 39 40 40 41
37 36 36 36 35 34 34 34 33 34 34 34 34 34 33 33 33 32 32 32 32 32 33 33 34 34 34 35 36 36 37 37 37 38 39 39 40 39 39 40 40 41 41 42
38 37 37 38 36 36 36 35 35 36 36 36 35 35 34 34 34 33 33 33 33 33 33 33 35 35 36 36 37 38 38 38 38 39 39 40 40 40 41 42 42 43 43 43
40 38 38 38 38 38 37 36 37 37 37 37 36 35 34 34 34 33 33 33 32 32 33 34 35 36 36 37 37 38 38 38 39 39 40 40 41 41 41 42 43 43 44 44
41 39 39 38 37 39 38 38 38 39 38 38 37 36 35 35 34 34 33 33 33 34 35 35 36 37 37 38 38 39 39 39 40 40 40 41 41 42 43 43 43 43 44 45
Wind_Direction
267 264 257 253 252 250 249 251 250 252 252 252 255 257 260 263 265 266 270 273 269 271 273 273 273 270 272 270 270 270 270 272 275 277 276 277 276 276 275 275 275 276 276 277
276 268 264 259 255 253 253 253 251 252 255 255 256 258 263 263 262 266 270 275 275 275 276 277 276 274 275 274 274 275 274 274 276 278 278 278 277 278 279 278 278 278 277 278
275 276 276 270 263 261 260 258 258 260 261 262 262 262 265 266 265 267 271 275 280 281 279 278 277 277 277 278 278 279 278 278 279 281 281 279 279 280 279 279 278 278 278 278
278 286 286 278 268 265 263 261 264 267 268 268 267 267 266 269 269 272 275 278 281 283 282 278 278 280 281 282 283 284 283 283 282 282 284 283 282 282 281 280 279 279 280 280
286 288 292 289 279 274 268 262 265 268 273 273 271 271 268 269 273 277 281 283 285 285 282 281 281 282 283 285 286 287 285 283 282 281 283 284 283 283 283 282 281 280 281 283
286 284 289 291 291 284 276 269 269 273 276 276 277 278 276 277 281 283 285 287 290 290 287 286 286 286 287 288 288 287 287 286 285 285 284 284 284 284 284 283 283 283 284 284
284 285 289 291 288 293 286 276 273 279 281 281 283 285 286 287 288 289 290 291 290 289 290 290 292 290 289 291 291 289 289 290 289 288 287 286 287 285 284 284 283 285 286 286
286 288 288 289 289 294 293 285 282 287 289 291 291 290 291 292 293 293 294 294 291 291 291 291 291 293 293 293 294 294 292 292 292 292 290 288 288 288 288 288 288 288 288 289
287 287 286 287 290 294 290 287 287 287 290 294 295 295 295 294 294 296 296 297 297 294 292 292 293 293 294 294 293 293 293 293 292 292 291 290 290 290 289 290 292 292 291 290
283 286 286 284 284 288 289 287 287 288 292 293 295 297 300 301 300 300 300 300 300 300 297 295 295 295 296 296 295 294 295 294 294 293 292 292 291 291 291 293 294 295 294 293
281 284 285 284 283 286 287 286 287 290 293 295 296 299 302 303 304 304 303 302 302 302 301 300 299 299 298 298 297 296 297 296 295 294 293 292 291 290 293 294 295 295 295 295
280 281 281 285 286 285 285 288 290 292 295 297 298 301 302 301 304 304 304 304 303 302 301 302 304 302 300 300 300 299 298 298 296 296 295 294 292 292 294 295 296 297 297 296
279 278 278 279 283 284 285 288 289 292 296 297 297 301 301 302 303 304 306 307 306 305 303 303 304 303 303 302 302 301 299 299 298 297 296 296 295 295 295 296 297 298 299 298
276 277 278 281 285 286 286 287 289 292 295 296 297 297 298 299 300 302 304 306 307 307 307 306 305 305 304 304 303 302 300 299 298 297 297 297 296 295 295 296 297 298 299 299
276 275 276 279 283 285 287 288 289 292 295 296 297 297 299 299 300 301 303 304 307 307 307 307 306 306 305 305 305 304 302 300 299 298 297 297 297 296 297 297 297 298 298 298
276 276 276 278 281 284 286 288 289 290 292 294 295 297 299 298 299 300 300 302 304 304 306 307 306 306 306 305 305 304 303 302 300 298 298 298 298 298 298 299 299 299 299 300
275 276 276 277 278 280 284 287 288 289 291 293 296 298 297 297 298 298 299 301 302 303 305 307 307 307 307 307 307 306 306 305 303 301 300 300 300 300 300 300 301 300 300 301
276 276 276 277 277 278 283 287 288 289 291 293 294 295 296 297 298 298 298 299 301 304 306 307 307 308 308 308 308 307 306 307 306 305 303 302 302 301 301 302 302 301 300 301
275 277 277 279 280 280 282 286 289 291 291 293 294 294 295 296 297 298 298 297 299 302 303 305 306 307 308 308 309 308 307 307 306 305 303 303 302 302 302 303 303 302 301 302
273 275 277 279 280 282 284 286 288 290 290 292 294 294 295 295 296 298 297 297 298 300 301 301 303 305 305 306 307 307 307 307 306 304 303 302 302 301 302 303 303 302 301 301
272 274 276 278 279 281 284 285 287 288 290 290 291 291 293 294 295 296 296 297 298 299 300 301 302 303 304 305 306 306 306 305 305 304 304 303 302 301 302 303 303 302 302 302
270 272 274 276 278 281 282 283 285 287 288 288 289 289 290 291 292 293 295 296 296 297 299 300 301 302 303 304 305 305 304 303 303 303 303 303 302 301 302 304 303 302 303 303
269 272 273 275 277 279 280 281 283 284 286 287 288 288 289 290 291 292 293 294 295 297 298 299 300 302 303 304 304 304 303 303 303 303 303 303 303 303 303 304 303 303 302 302
269 271 272 273 274 276 277 278 279 281 283 285 287 288 289 289 291 292 292 293 294 295 297 298 299 301 303 304 304 303 302 302 302 302 302 302 301 302 303 303 302 302 302 302
268 270 271 271 273 274 274 275 276 278 280 283 285 287 288 288 290 291 292 292 293 294 296 298 300 301 302 303 304 304 303 302 302 302 302 301 301 301 302 302 302 302 301 302
267 269 271 273 274 274 273 273 275 277 279 281 283 284 285 286 287 289 290 290 291 294 295 297 299 300 301 302 303 304 304 303 302 303 303 302 302 302 302 303 302 302 302 302
Height
5742 5743 5742 5743 5744 5745 5745 5746 5747 5747 5748 5749 5750 5751 5751 5751 5751 5751 5751 5750 5750 5749 5749 5749 5748 5748 5748 5748 5748 5748 5747 5746 5746 5745 5744 5743 5743 5742 5742 5741 5741 5740 5740 5739
5741 5741 5741 5741 5741 5742 5742 5743 5744 5744 5745 5746 5747 5747 5748 5748 5748 5748 5748 5747 5746 5746 5746 5745 5744 5744 5744 5743 5743 5742 5741 5740 5739 5738 5737 5736 5735 5735 5734 5733 5733 5732 5731 5731
5740 5741 5739 5739 5739 5740 5740 5741 5742 5742 5742 5743 5744 5744 5744 5744 5744 5745 5744 5744 5743 5743 5742 5741 5740 5740 5739 5739 5738 5736 5735 5734 5733 5732 5731 5730 5728 5728 5727 5726 5725 5724 5723 5722
5738 5739 5739 5738 5738 5738 5738 5739 5739 5740 5740 5740 5741 5741 5741 5741 5741 5741 5741 5741 5740 5739 5738 5737 5736 5735 5735 5733 5732 5731 5729 5728 5727 5725 5724 5723 5722 5721 5720 5719 5717 5716 5715 5714
5737 5738 5737 5737 5737 5736 5736 5737 5737 5737 5737 5737 5737 5738 5739 5738 5738 5738 5738 5737 5736 5735 5734 5733 5732 5731 5730 5728 5727 5725 5723 5722 5720 5719 5717 5716 5715 5713 5712 5711 5710 5709 5707 5706
5737 5736 5736 5735 5735 5735 5734 5735 5735 5735 5735 5735 5735 5735 5735 5735 5735 5735 5734 5733 5732 5731 5729 5728 5727 5726 5725 5723 5721 5719 5718 5716 5714 5712 5711 5709 5708 5706 5705 5703 5702 5701 5700 5698
5736 5735 5734 5734 5734 5733 5733 5734 5734 5733 5732 5733 5733 5731 5732 5732 5731 5731 5730 5729 5728 5727 5725 5724 5723 5722 5720 5718 5716 5714 5712 5710 5708 5706 5704 5702 5700 5699 5697 5695 5694 5693 5692 5690
5733 5734 5733 5732 5732 5732 5731 5732 5732 5731 5730 5730 5730 5729 5730 5729 5728 5727 5726 5724 5723 5722 5721 5719 5718 5716 5714 5712 5710 5708 5706 5704 5702 5699 5697 5696 5694 5692 5691 5689 5687 5686 5684 5682
5732 5732 5731 5731 5731 5731 5730 5729 5730 5729 5728 5727 5727 5727 5727 5725 5724 5723 5722 5720 5719 5717 5716 5714 5713 5710 5708 5706 5704 5702 5700 5698 5695 5693 5691 5689 5688 5686 5684 5682 5680 5678 5676 5674
5730 5730 5729 5729 5729 5728 5728 5727 5727 5726 5725 5724 5724 5723 5723 5721 5720 5719 5717 5716 5714 5712 5710 5709 5707 5705 5702 5700 5698 5695 5693 5691 5689 5687 5685 5683 5681 5679 5678 5675 5673 5671 5669 5666
5727 5727 5727 5726 5726 5726 5726 5725 5724 5723 5722 5721 5720 5723 5720 5718 5716 5715 5713 5711 5710 5707 5705 5703 5701 5699 5696 5694 5691 5689 5687 5684 5682 5680 5678 5676 5674 5673 5671 5668 5666 5664 5661 5658
5724 5725 5724 5724 5724 5723 5722 5722 5721 5721 5719 5717 5716 5720 5716 5714 5712 5710 5709 5707 5705 5703 5700 5698 5696 5693 5690 5688 5685 5683 5680 5678 5676 5674 5672 5669 5667 5666 5664 5661 5659 5656 5653 5650
5721 5721 5721 5720 5722 5720 5719 5719 5718 5717 5716 5714 5713 5716 5712 5710 5708 5706 5704 5702 5700 5698 5696 5693 5691 5688 5685 5682 5680 5677 5674 5672 5670 5667 5665 5663 5661 5659 5657 5654 5651 5648 5645 5642
5717 5717 5717 5717 5716 5716 5715 5715 5714 5713 5711 5710 5710 5710 5708 5706 5703 5701 5700 5697 5695 5693 5691 5688 5685 5683 5680 5677 5674 5671 5668 5665 5663 5661 5659 5656 5654 5652 5650 5647 5644 5641 5637 5634
5712 5712 5712 5712 5712 5711 5711 5711 5710 5708 5707 5706 5706 5704 5704 5701 5699 5697 5695 5693 5691 5688 5686 5683 5680 5677 5674 5671 5668 5665 5661 5659 5657 5654 5652 5650 5647 5645 5642 5639 5636 5632 5629 5625
5707 5707 5707 5708 5707 5706 5706 5706 5705 5703 5702 5701 5700 5700 5699 5696 5694 5692 5690 5688 5685 5683 5680 5677 5674 5671 5668 5665 5662 5659 5655 5653 5650 5647 5645 5642 5640 5637 5634 5631 5627 5624 5620 5616
5701 5702 5702 5702 5701 5700 5701 5702 5700 5699 5698 5696 5695 5695 5692 5690 5688 5686 5684 5682 5680 5677 5675 5672 5669 5665 5662 5659 5656 5652 5649 5646 5643 5640 5638 5635 5632 5629 5626 5622 5619 5615 5611 5607
5695 5695 5695 5695 5695 5695 5699 5696 5694 5693 5692 5691 5689 5688 5686 5684 5682 5680 5678 5676 5674 5671 5668 5665 5662 5659 5656 5653 5649 5646 5642 5639 5636 5633 5630 5627 5624 5621 5617 5614 5610 5606 5602 5597
5689 5689 5688 5688 5687 5688 5691 5690 5688 5686 5686 5685 5682 5681 5679 5677 5676 5675 5672 5670 5667 5665 5662 5659 5656 5653 5650 5646 5643 5639 5636 5632 5629 5626 5622 5619 5616 5613 5609 5605 5601 5597 5592 5588
5681 5681 5682 5681 5679 5681 5685 5683 5680 5680 5679 5679 5676 5674 5672 5670 5669 5669 5666 5663 5660 5658 5655 5652 5649 5646 5643 5639 5636 5632 5629 5625 5622 5618 5614 5611 5607 5604 5600 5596 5592 5588 5583 5579
5673 5673 5673 5673 5671 5673 5677 5675 5673 5673 5673 5670 5668 5666 5664 5662 5662 5660 5657 5655 5653 5651 5648 5645 5642 5639 5635 5632 5629 5625 5621 5618 5614 5610 5606 5602 5599 5595 5591 5587 5583 5578 5574 5569
5664 5664 5665 5664 5663 5668 5668 5666 5665 5664 5662 5661 5659 5657 5656 5655 5653 5651 5649 5647 5645 5642 5640 5637 5634 5631 5628 5624 5621 5617 5613 5610 5606 5602 5598 5594 5590 5586 5582 5577 5573 5568 5564 5560
5655 5657 5656 5657 5659 5659 5658 5657 5656 5654 5653 5651 5650 5649 5648 5646 5645 5643 5641 5639 5636 5634 5631 5628 5625 5622 5619 5615 5612 5608 5604 5600 5596 5592 5588 5584 5580 5576 5572 5567 5563 5558 5554 5549
5645 5646 5645 5646 5648 5649 5648 5646 5645 5644 5643 5642 5641 5640 5638 5636 5635 5634 5632 5630 5627 5625 5622 5620 5617 5613 5610 5606 5602 5598 5594 5591 5587 5583 5578 5574 5570 5566 5561 5557 5552 5547 5543 5538
5635 5634 5634 5634 5637 5637 5637 5636 5635 5634 5633 5632 5631 5630 5628 5627 5625 5624 5622 5620 5618 5616 5613 5610 5607 5604 5601 5597 5593 5589 5585 5581 5577 5573 5568 5564 5560 5555 5551 5546 5541 5537 5532 5527
5624 5624 5624 5625 5627 5625 5626 5626 5624 5623 5622 5622 5620 5620 5619 5617 5615 5614 5612 5610 5608 5606 5603 5601 5598 5595 5591 5587 5584 5579 5575 5571 5567 5563 5558 5554 5550 5545 5540 5535 5531 5525 5521 5515